Bryce Canyon, UT

10:55 PM MDT on October 18, 2017 (GMT -0600)
Bryce Canyon

Weather History for KBCE - March, 2013

Change the Weather History Date:

Wednesday, March 13, 2013

  Actual Average Record
Temperature  
Mean Temperature 37 °F -  
Max Temperature 57 °F 44 °F 66 °F (2007)
Min Temperature 19 °F 17 °F -14 °F (2006)
Degree Days  
Heating Degree Days 28    
Moisture  
Dew Point 23 °F    
Average Humidity 62    
Maximum Humidity 92    
Minimum Humidity 20    
Precipitation  
Precipitation 0.00 in - - ()
Sea Level Pressure  
Sea Level Pressure 30.31 in    
Wind  
Wind Speed 4 mph (WNW)    
Max Wind Speed 12 mph    
Max Gust Speed -    
Visibility 10 miles    
Events      
Averages and records for this station are not official NWS values.
T = Trace of Precipitation, MM = Missing Value Source: NWS Daily Summary

Daily Weather History Graph

Daily Weather History Graph

Search for Another Location

Airport or City:

Trip Planner

Search our weather history database for the weather conditions in past years. The results will help you decide how hot, cold, wet, or windy it might be!

Date:

Astronomy

Mar. 13, 2013 Rise Set
Actual Time 7:42 AM MDT 7:34 PM MDT
Civil Twilight 7:16 AM MDT 8:00 PM MDT
Nautical Twilight 6:45 AM MDT 8:30 PM MDT
Astronomical Twilight 6:15 AM MDT 9:01 PM MDT
Moon 8:26 AM MDT (3/13) 9:51 PM MDT (3/13)
Length of Visible Light 12h 44m
Length of Day
11h 52m
Waxing Crescent, 4% of the Moon is Illuminated
Mar 13
Waxing Crescent
Mar 19
First Quarter
Mar 27
Full
Apr 2
Last Quarter
Apr 10
New

Hourly Weather History & Observations

Time (MDT) Temp. Windchill Dew Point Humidity Pressure Visibility Wind Dir Wind Speed Gust Speed Precip Events Conditions
1:53 AM 28.0 °F - 23.0 °F 81% 30.26 in 10.0 mi Calm Calm - N/A   Clear
2:53 AM 27.0 °F 19.5 °F 23.0 °F 85% 30.26 in 10.0 mi West 6.9 mph - N/A   Clear
3:53 AM 25.0 °F 19.3 °F 21.9 °F 88% 30.25 in 10.0 mi West 4.6 mph - N/A   Clear
4:53 AM 21.9 °F 13.4 °F 19.9 °F 92% 30.27 in 10.0 mi West 6.9 mph - N/A   Clear
5:53 AM 21.9 °F 14.5 °F 19.0 °F 89% 30.29 in 10.0 mi West 5.8 mph - N/A   Clear
6:53 AM 21.0 °F 14.6 °F 18.0 °F 88% 30.31 in 10.0 mi West 4.6 mph - N/A   Clear
7:53 AM 19.9 °F 14.9 °F 17.1 °F 89% 30.39 in 10.0 mi West 3.5 mph - N/A   Clear
8:53 AM 27.0 °F 21.6 °F 21.9 °F 81% 30.39 in 10.0 mi West 4.6 mph - N/A   Clear
9:53 AM 36.0 °F - 26.1 °F 67% 30.38 in 10.0 mi Calm Calm - N/A   Clear
10:53 AM 39.9 °F 37.8 °F 27.0 °F 60% 30.35 in 10.0 mi NE 3.5 mph - N/A   Clear
11:53 AM 46.0 °F - 28.0 °F 50% 30.34 in 10.0 mi Calm Calm - N/A   Clear
12:53 PM 50.0 °F - 26.1 °F 39% 30.31 in 10.0 mi ENE 5.8 mph - N/A   Clear
1:53 PM 53.1 °F - 12.9 °F 20% 30.28 in 10.0 mi ENE 3.5 mph - N/A   Clear
2:53 PM 54.0 °F - 19.0 °F 25% 30.26 in 10.0 mi NW 4.6 mph - N/A   Clear
3:53 PM 55.0 °F - 24.1 °F 30% 30.26 in 10.0 mi Calm Calm - N/A   Clear
4:53 PM 55.9 °F - 23.0 °F 28% 30.27 in 10.0 mi NW 3.5 mph - N/A   Clear
5:53 PM 55.0 °F - 23.0 °F 29% 30.26 in 10.0 mi Calm Calm - N/A   Clear
6:53 PM 52.0 °F - 26.1 °F 37% 30.28 in 10.0 mi ESE 5.8 mph - N/A   Clear
7:53 PM 44.1 °F 38.1 °F 27.0 °F 51% 30.33 in 10.0 mi SSE 11.5 mph - N/A   Clear
8:53 PM 39.0 °F 34.0 °F 26.1 °F 60% 30.35 in 10.0 mi West 6.9 mph - N/A   Clear
9:53 PM 32.0 °F 28.7 °F 27.0 °F 82% 30.35 in 10.0 mi WSW 3.5 mph - N/A   Clear
10:53 PM 28.9 °F - 25.0 °F 85% 30.35 in 10.0 mi Calm Calm - N/A   Clear
11:53 PM 32.0 °F - 25.0 °F 75% 30.32 in 10.0 mi Calm Calm - N/A   Clear